HI1045 MDJB-MDPC

Flight info

Callsign HI1045
Flight time 0h 21m
Altitude 19000
Route DCT OLITA DCT MDSD DCT MDSP DCT MDLR DCT
Aircraft C25B/M-SDE2E3FGHRWXY/LB1

Departure

Time 2026-04-27 22:27
Airport La Isabela International Airport (MDJB)

Arrival

Time 2026-04-27 22:48
Airport Punta Cana International Airport (MDPC)
Time Latitude Longitude Altitude Speed Heading
2026-04-27 22:16 18.57551 -69.98294 74 ft 0 kts 239°
2026-04-27 22:24 18.57548 -69.98321 74 ft 5 kts 324°
2026-04-27 22:24 18.57620 -69.98327 70 ft 11 kts 12°
2026-04-27 22:25 18.57697 -69.98345 78 ft 12 kts
2026-04-27 22:25 18.57836 -69.98330 83 ft 28 kts
2026-04-27 22:25 18.57941 -69.98345 85 ft 13 kts 298°
2026-04-27 22:25 18.57956 -69.98402 85 ft 0 kts 276°
2026-04-27 22:26 18.57959 -69.98436 88 ft 14 kts 275°
2026-04-27 22:26 18.57928 -69.98487 85 ft 3 kts 188°
2026-04-27 22:26 18.57925 -69.98487 85 ft 0 kts 190°
2026-04-27 22:27 18.57667 -69.98517 81 ft 97 kts 186°
2026-04-27 22:27 18.56687 -69.98634 490 ft 168 kts 188°
2026-04-27 22:27 18.55405 -69.98815 1371 ft 209 kts 186°
2026-04-27 22:27 18.53845 -69.98979 2148 ft 246 kts 181°
2026-04-27 22:28 18.51981 -69.98522 2028 ft 298 kts 162°
2026-04-27 22:28 18.49935 -69.97906 1987 ft 289 kts 165°
2026-04-27 22:28 18.48071 -69.97103 1987 ft 304 kts 151°
2026-04-27 22:28 18.46320 -69.95805 2213 ft 312 kts 141°
2026-04-27 22:29 18.44901 -69.94059 2223 ft 316 kts 126°
2026-04-27 22:29 18.43911 -69.91953 3076 ft 319 kts 111°
2026-04-27 22:29 18.43508 -69.90448 3594 ft 326 kts 101°
2026-04-27 22:29 18.43381 -69.87244 4623 ft 333 kts 92°
2026-04-27 22:30 18.43297 -69.84789 5382 ft 337 kts 92°
2026-04-27 22:30 18.43261 -69.82299 6127 ft 341 kts 91°
2026-04-27 22:30 18.43228 -69.79800 6805 ft 346 kts 91°
2026-04-27 22:30 18.43175 -69.77248 7465 ft 351 kts 92°
2026-04-27 22:31 18.43139 -69.75532 7893 ft 354 kts 92°
2026-04-27 22:31 18.43086 -69.72924 8565 ft 357 kts 92°
2026-04-27 22:31 18.43038 -69.70290 9211 ft 361 kts 92°
2026-04-27 22:31 18.42987 -69.67626 9819 ft 365 kts 92°
2026-04-27 22:32 18.43046 -69.64936 10324 ft 370 kts 88°
2026-04-27 22:32 18.43198 -69.62243 10817 ft 374 kts 88°
2026-04-27 22:32 18.43313 -69.59465 10991 ft 388 kts 89°
2026-04-27 22:32 18.43436 -69.56556 10993 ft 402 kts 89°
2026-04-27 22:33 18.43569 -69.53598 11001 ft 413 kts 88°
2026-04-27 22:33 18.43715 -69.50545 10998 ft 420 kts 88°
2026-04-27 22:33 18.43848 -69.47486 11001 ft 404 kts 88°
2026-04-27 22:33 18.43981 -69.44662 10997 ft 370 kts 88°
2026-04-27 22:34 18.44096 -69.42025 10988 ft 351 kts 89°
2026-04-27 22:34 18.44204 -69.39501 10979 ft 337 kts 89°
2026-04-27 22:34 18.44316 -69.37100 10979 ft 327 kts 89°
2026-04-27 22:34 18.44417 -69.34722 10979 ft 319 kts 89°
2026-04-27 22:35 18.44516 -69.32432 10978 ft 314 kts 89°
2026-04-27 22:35 18.44618 -69.30152 10980 ft 309 kts 89°
2026-04-27 22:35 18.44713 -69.27893 10975 ft 306 kts 89°
2026-04-27 22:35 18.44816 -69.25657 10986 ft 304 kts 89°
2026-04-27 22:36 18.44906 -69.23439 10989 ft 302 kts 89°
2026-04-27 22:36 18.45007 -69.21232 10990 ft 301 kts 89°
2026-04-27 22:36 18.45096 -69.19037 10995 ft 300 kts 89°
2026-04-27 22:36 18.45196 -69.16846 10996 ft 298 kts 89°
2026-04-27 22:37 18.45184 -69.14682 11001 ft 297 kts 92°
2026-04-27 22:37 18.45195 -69.12499 11006 ft 297 kts 91°
2026-04-27 22:37 18.45213 -69.10321 11005 ft 297 kts 91°
2026-04-27 22:37 18.45224 -69.08173 11008 ft 296 kts 91°
2026-04-27 22:38 18.45221 -69.05996 11010 ft 296 kts 92°
2026-04-27 22:38 18.45229 -69.03819 11009 ft 296 kts 91°
2026-04-27 22:38 18.45230 -69.01644 11013 ft 296 kts 91°
2026-04-27 22:38 18.45239 -68.99501 11012 ft 296 kts 91°
2026-04-27 22:39 18.45240 -68.97322 11010 ft 296 kts 92°
2026-04-27 22:39 18.45246 -68.95141 11013 ft 297 kts 91°
2026-04-27 22:39 18.45249 -68.92967 11013 ft 296 kts 92°
2026-04-27 22:39 18.45317 -68.90825 11009 ft 297 kts 83°
2026-04-27 22:40 18.45828 -68.88715 11013 ft 296 kts 77°
2026-04-27 22:40 18.46258 -68.86585 11014 ft 296 kts 80°
2026-04-27 22:40 18.46699 -68.84454 11015 ft 297 kts 78°
2026-04-27 22:40 18.47170 -68.82333 11016 ft 297 kts 78°
2026-04-27 22:41 18.47641 -68.80214 11012 ft 297 kts 78°
2026-04-27 22:41 18.48096 -68.78114 11014 ft 297 kts 78°
2026-04-27 22:41 18.48557 -68.75989 11017 ft 297 kts 78°
2026-04-27 22:41 18.49020 -68.73860 11013 ft 297 kts 78°
2026-04-27 22:42 18.49482 -68.71739 11013 ft 297 kts 78°
2026-04-27 22:42 18.49937 -68.69653 11021 ft 288 kts 78°
2026-04-27 22:42 18.50372 -68.67635 10765 ft 281 kts 78°
2026-04-27 22:42 18.50810 -68.65630 10425 ft 279 kts 78°
2026-04-27 22:43 18.51233 -68.63645 10088 ft 276 kts 78°
2026-04-27 22:43 18.51640 -68.61668 9734 ft 275 kts 79°
2026-04-27 22:43 18.52043 -68.59740 9337 ft 270 kts 78°
2026-04-27 22:43 18.52432 -68.57876 8625 ft 235 kts 79°
2026-04-27 22:44 18.52766 -68.56303 7697 ft 207 kts 79°
2026-04-27 22:44 18.53064 -68.54864 6809 ft 196 kts 79°
2026-04-27 22:44 18.53352 -68.53486 5917 ft 189 kts 79°
2026-04-27 22:44 18.53631 -68.52149 5026 ft 184 kts 79°
2026-04-27 22:45 18.53898 -68.50856 4136 ft 181 kts 80°
2026-04-27 22:45 18.54168 -68.49571 3260 ft 177 kts 80°
2026-04-27 22:45 18.54429 -68.48308 2363 ft 175 kts 81°
2026-04-27 22:45 18.54690 -68.47049 1575 ft 183 kts 80°
2026-04-27 22:46 18.54974 -68.45680 1524 ft 196 kts 80°
2026-04-27 22:46 18.55256 -68.44329 1524 ft 182 kts 80°
2026-04-27 22:46 18.55651 -68.43082 1514 ft 178 kts 70°
2026-04-27 22:46 18.56055 -68.42113 1232 ft 133 kts 71°
2026-04-27 22:47 18.56322 -68.41191 1159 ft 131 kts 81°
2026-04-27 22:47 18.56422 -68.40310 860 ft 105 kts 86°
2026-04-27 22:47 18.56488 -68.39482 666 ft 110 kts 85°
2026-04-27 22:47 18.56548 -68.38705 354 ft 109 kts 84°
2026-04-27 22:48 18.56608 -68.37983 127 ft 86 kts 86°
2026-04-27 22:48 18.56646 -68.37430 48 ft 60 kts 85°
2026-04-27 22:48 18.56664 -68.37136 48 ft 27 kts 88°
2026-04-27 22:48 18.56670 -68.36975 49 ft 18 kts 82°
2026-04-27 22:49 18.56683 -68.36862 49 ft 13 kts 84°
2026-04-27 22:49 18.56678 -68.36774 49 ft 9 kts 135°
2026-04-27 22:49 18.56608 -68.36761 47 ft 17 kts 182°
2026-04-27 22:49 18.56528 -68.36654 47 ft 26 kts 77°
2026-04-27 22:50 18.56548 -68.36455 46 ft 27 kts 107°
2026-04-27 22:50 18.56444 -68.36337 45 ft 9 kts 155°
2026-04-27 22:50 18.56387 -68.36338 45 ft 5 kts 177°
2026-04-27 22:50 18.56384 -68.36338 45 ft 0 kts 176°